Mankato, MN

1:55 PM CST on November 13, 2019 (GMT -0600)
Mankato Regional

Weather History for KMKT - September, 2019

Change the Weather History Date:

Tuesday, September 17, 2019

  Actual Average Record
Temperature  
Mean Temperature 79 °F -  
Max Temperature 88 °F 68 °F 91 °F (2007)
Min Temperature 70 °F 49 °F 46 °F (2012)
Cooling Degree Days 14    
Growing Degree Days 29 (Base 50)    
Moisture  
Dew Point 71 °F    
Average Humidity 80    
Maximum Humidity 93    
Minimum Humidity 57    
Precipitation  
Precipitation 0.00 in - - ()
Sea Level Pressure  
Sea Level Pressure 29.93 in    
Wind  
Wind Speed 12 mph ()    
Max Wind Speed 20 mph    
Max Gust Speed 28 mph    
Visibility 10.0 miles    
Events      
Averages and records for this station are not official NWS values.
T = Trace of Precipitation, MM = Missing Value Source: Averaged Metar Reports

Daily Weather History Graph

Daily Weather History Graph

Search for Another Location

Airport or City:

Astronomy

Sep. 17, 2019 Rise Set
Actual Time 6:56 AM CDT 7:22 PM CDT
Civil Twilight 6:27 AM CDT 7:51 PM CDT
Nautical Twilight 5:53 AM CDT 8:25 PM CDT
Astronomical Twilight 5:18 AM CDT 9:01 PM CDT
Moon 9:19 PM CDT (9/17) 10:07 AM CDT (9/17)
Length of Visible Light 13h 23m
Length of Day
12h 25m
Waning Gibbous, 89% of the Moon is Illuminated
Sep 17
Waning Gibbous
Sep 21
Last Quarter
Sep 28
New
Oct 5
First Quarter
Oct 13
Full

Hourly Weather History & Observations

Time (CDT) Temp. Heat Index Dew Point Humidity Pressure Visibility Wind Dir Wind Speed Gust Speed Precip Events Conditions
12:56 AM 73.9 °F - 72.0 °F 93% 29.97 in 10.0 mi SSE 11.5 mph - N/A   Clear
1:56 AM 73.0 °F - 71.1 °F 93% 29.97 in 10.0 mi SSE 10.4 mph - N/A   Clear
2:56 AM 73.0 °F - 70.0 °F 90% 29.97 in 10.0 mi SSE 10.4 mph - N/A   Clear
3:56 AM 72.0 °F - 70.0 °F 93% 29.97 in 10.0 mi SSE 10.4 mph - N/A   Clear
4:56 AM 71.1 °F - 69.1 °F 93% 29.98 in 10.0 mi SSE 12.7 mph - N/A   Clear
5:56 AM 71.1 °F - 69.1 °F 93% 29.97 in 10.0 mi SSE 11.5 mph - N/A   Clear
6:56 AM 70.0 °F - 68.0 °F 93% 29.98 in 10.0 mi SSE 11.5 mph - N/A   Clear
7:56 AM 70.0 °F - 68.0 °F 93% 29.98 in 10.0 mi SSE 13.8 mph - N/A   Clear
8:56 AM 72.0 °F - 68.0 °F 87% 29.97 in 10.0 mi SSE 17.3 mph 21.9 mph N/A   Clear
9:56 AM 75.0 °F - 70.0 °F 84% 29.96 in 10.0 mi South 16.1 mph 23.0 mph N/A   Clear
10:56 AM 75.9 °F - 70.0 °F 82% 29.97 in 10.0 mi SSE 13.8 mph 21.9 mph N/A   Clear
11:56 AM 80.1 °F 83.6 °F 71.1 °F 74% 29.95 in 10.0 mi South 13.8 mph 20.7 mph N/A   Clear
12:56 PM 82.9 °F 88.8 °F 73.0 °F 72% 29.93 in 10.0 mi South 19.6 mph 26.5 mph N/A   Clear
1:56 PM 86.0 °F 91.5 °F 71.1 °F 61% 29.91 in 10.0 mi South 15.0 mph 27.6 mph N/A   Clear
2:56 PM 88.0 °F 93.8 °F 71.1 °F 57% 29.90 in 10.0 mi SSW 13.8 mph 27.6 mph N/A   Clear
3:56 PM 88.0 °F 93.8 °F 71.1 °F 57% 29.88 in 10.0 mi South 17.3 mph 26.5 mph N/A   Scattered Clouds
4:56 PM 87.1 °F 93.6 °F 72.0 °F 61% 29.87 in 10.0 mi South 16.1 mph 25.3 mph N/A   Partly Cloudy
5:56 PM 86.0 °F 91.5 °F 71.1 °F 61% 29.86 in 10.0 mi SSE 16.1 mph 25.3 mph N/A   Clear
6:56 PM 82.0 °F 86.3 °F 71.1 °F 69% 29.87 in 10.0 mi SSE 18.4 mph 23.0 mph N/A   Clear
7:56 PM 80.1 °F 83.8 °F 72.0 °F 76% 29.87 in 10.0 mi SSE 13.8 mph 20.7 mph N/A   Clear
8:56 PM 78.1 °F - 73.0 °F 84% 29.88 in 10.0 mi SSE 15.0 mph 21.9 mph N/A   Clear
9:56 PM 77.0 °F - 73.0 °F 88% 29.90 in 10.0 mi SSE 13.8 mph 23.0 mph N/A   Clear
10:56 PM 75.0 °F - 72.0 °F 90% 29.90 in 10.0 mi SSE 15.0 mph 20.7 mph N/A   Clear
11:56 PM 73.9 °F - 70.0 °F 87% 29.90 in 10.0 mi SSE 17.3 mph 21.9 mph N/A   Clear